AUA972 ESGG-LOWW

Flight info

Callsign AUA972
Flight time 1h 36m
Altitude 37000
Route TOPLA DCT SALLO DCT RENKI M725 GERGA DCT IDOBA M725 LUROS DCT HDO DCT EVIKU DCT BITSI DCT MIKOV MIKOV8W
Aircraft A320/M-SDE3FGHIRWY/LB1

Departure

Time 2026-04-22 19:15
Airport Göteborg Landvetter Airport (ESGG)

Arrival

Time 2026-04-22 20:51
Airport Vienna International Airport (LOWW)
Time Latitude Longitude Altitude Speed Heading
2026-04-22 19:03 57.66972 12.29501 517 ft 0 kts 116°
2026-04-22 19:07 57.66991 12.29430 516 ft 4 kts 127°
2026-04-22 19:07 57.67009 12.29398 516 ft 4 kts 163°
2026-04-22 19:07 57.67029 12.29398 516 ft 1 kts 205°
2026-04-22 19:07 57.67033 12.29402 516 ft 1 kts 205°
2026-04-22 19:09 57.67033 12.29401 516 ft 1 kts 205°
2026-04-22 19:09 57.67004 12.29375 516 ft 8 kts 206°
2026-04-22 19:09 57.66990 12.29277 516 ft 11 kts 294°
2026-04-22 19:10 57.66971 12.29120 516 ft 17 kts 208°
2026-04-22 19:10 57.66844 12.29004 516 ft 23 kts 206°
2026-04-22 19:10 57.66712 12.28874 516 ft 22 kts 209°
2026-04-22 19:10 57.66666 12.28707 512 ft 16 kts 261°
2026-04-22 19:11 57.66578 12.28592 512 ft 17 kts 206°
2026-04-22 19:11 57.66473 12.28495 511 ft 17 kts 204°
2026-04-22 19:11 57.66363 12.28397 511 ft 18 kts 206°
2026-04-22 19:11 57.66244 12.28289 510 ft 20 kts 206°
2026-04-22 19:12 57.66111 12.28166 509 ft 22 kts 207°
2026-04-22 19:12 57.65967 12.28039 508 ft 24 kts 206°
2026-04-22 19:12 57.65812 12.27897 506 ft 26 kts 203°
2026-04-22 19:12 57.65644 12.27748 503 ft 28 kts 207°
2026-04-22 19:13 57.65464 12.27579 501 ft 30 kts 206°
2026-04-22 19:13 57.65273 12.27406 491 ft 31 kts 205°
2026-04-22 19:13 57.65122 12.27266 493 ft 20 kts 204°
2026-04-22 19:13 57.64990 12.27146 491 ft 22 kts 206°
2026-04-22 19:14 57.64871 12.27006 487 ft 18 kts 252°
2026-04-22 19:14 57.64932 12.26861 484 ft 12 kts 325°
2026-04-22 19:14 57.65006 12.26820 490 ft 12 kts 24°
2026-04-22 19:14 57.65095 12.26906 489 ft 24 kts 26°
2026-04-22 19:15 57.65286 12.27074 493 ft 69 kts 26°
2026-04-22 19:15 57.66190 12.27895 509 ft 146 kts 26°
2026-04-22 19:15 57.67189 12.28801 809 ft 163 kts 25°
2026-04-22 19:15 57.68194 12.29710 1568 ft 160 kts 25°
2026-04-22 19:16 57.69233 12.30654 2077 ft 175 kts 23°
2026-04-22 19:16 57.70185 12.32279 2381 ft 203 kts 60°
2026-04-22 19:16 57.70330 12.34982 2932 ft 223 kts 99°
2026-04-22 19:16 57.69806 12.37696 3704 ft 225 kts 105°
2026-04-22 19:17 57.69237 12.40442 4480 ft 228 kts 106°
2026-04-22 19:17 57.68401 12.43019 5196 ft 239 kts 130°
2026-04-22 19:17 57.67010 12.44857 5729 ft 258 kts 156°
2026-04-22 19:17 57.65173 12.45587 6067 ft 283 kts 173°
2026-04-22 19:18 57.63163 12.46041 6650 ft 296 kts 173°
2026-04-22 19:18 57.61099 12.46514 7394 ft 301 kts 175°
2026-04-22 19:18 57.58991 12.46608 8165 ft 305 kts 181°
2026-04-22 19:18 57.56886 12.46608 8944 ft 309 kts 181°
2026-04-22 19:19 57.54722 12.46612 9741 ft 313 kts 181°
2026-04-22 19:19 57.52542 12.46374 10468 ft 316 kts 192°
2026-04-22 19:19 57.50311 12.45656 10768 ft 337 kts 192°
2026-04-22 19:19 57.47924 12.44870 10948 ft 360 kts 192°
2026-04-22 19:20 57.45378 12.44031 11081 ft 383 kts 192°
2026-04-22 19:20 57.42684 12.43151 11209 ft 404 kts 192°
2026-04-22 19:20 57.39854 12.42238 11401 ft 420 kts 191°
2026-04-22 19:20 57.36986 12.41325 11870 ft 426 kts 191°
2026-04-22 19:21 57.34051 12.40395 12457 ft 430 kts 191°
2026-04-22 19:21 57.31086 12.39456 13045 ft 434 kts 191°
2026-04-22 19:21 57.28103 12.38510 13671 ft 436 kts 191°
2026-04-22 19:21 57.25101 12.37552 14232 ft 439 kts 191°
2026-04-22 19:22 57.22080 12.36582 14740 ft 442 kts 191°
2026-04-22 19:22 57.19036 12.35611 15231 ft 445 kts 190°
2026-04-22 19:22 57.15961 12.34813 15699 ft 449 kts 184°
2026-04-22 19:22 57.12870 12.34830 16159 ft 451 kts 174°
2026-04-22 19:23 57.09772 12.35764 16605 ft 453 kts 165°
2026-04-22 19:23 57.06726 12.37310 17067 ft 455 kts 163°
2026-04-22 19:23 57.03665 12.38870 17513 ft 457 kts 163°
2026-04-22 19:23 57.00593 12.40415 17971 ft 459 kts 163°
2026-04-22 19:24 56.97503 12.41948 18400 ft 461 kts 163°
2026-04-22 19:24 56.94399 12.43477 18767 ft 464 kts 163°
2026-04-22 19:24 56.91270 12.45015 19073 ft 467 kts 163°
2026-04-22 19:24 56.88124 12.46559 19401 ft 469 kts 163°
2026-04-22 19:25 56.84966 12.48110 19726 ft 471 kts 163°
2026-04-22 19:25 56.81839 12.49650 20047 ft 473 kts 163°
2026-04-22 19:25 56.78661 12.51212 20350 ft 474 kts 163°
2026-04-22 19:25 56.75466 12.52779 20647 ft 476 kts 163°
2026-04-22 19:26 56.72269 12.54343 20988 ft 476 kts 162°
2026-04-22 19:26 56.69066 12.55910 21301 ft 477 kts 162°
2026-04-22 19:26 56.65858 12.57480 21585 ft 478 kts 162°
2026-04-22 19:26 56.62641 12.59048 21864 ft 480 kts 162°
2026-04-22 19:27 56.59411 12.60618 22132 ft 481 kts 162°
2026-04-22 19:27 56.56218 12.62169 22384 ft 483 kts 162°
2026-04-22 19:27 56.52967 12.63746 22640 ft 484 kts 162°
2026-04-22 19:27 56.49714 12.65324 22903 ft 485 kts 162°
2026-04-22 19:28 56.46451 12.66904 23121 ft 486 kts 162°
2026-04-22 19:28 56.43184 12.68479 23400 ft 486 kts 162°
2026-04-22 19:28 56.39913 12.70052 23636 ft 486 kts 162°
2026-04-22 19:28 56.36646 12.71623 23906 ft 485 kts 162°
2026-04-22 19:29 56.33386 12.73190 24164 ft 485 kts 162°
2026-04-22 19:29 56.30118 12.74757 24352 ft 487 kts 162°
2026-04-22 19:29 56.26888 12.76299 24574 ft 487 kts 162°
2026-04-22 19:29 56.23619 12.77852 24852 ft 486 kts 162°
2026-04-22 19:30 56.21412 12.78903 25040 ft 485 kts 162°
2026-04-22 19:30 56.17092 12.80962 25400 ft 484 kts 161°
2026-04-22 19:30 56.13846 12.82504 25737 ft 481 kts 161°
2026-04-22 19:30 56.10615 12.84032 26062 ft 480 kts 161°
2026-04-22 19:31 56.07392 12.85556 26353 ft 478 kts 161°
2026-04-22 19:31 56.04177 12.87070 26656 ft 478 kts 161°
2026-04-22 19:31 56.01010 12.88561 26955 ft 477 kts 161°
2026-04-22 19:31 55.97802 12.90068 27252 ft 476 kts 161°
2026-04-22 19:32 55.94606 12.91571 27550 ft 475 kts 161°
2026-04-22 19:32 55.91412 12.93072 27864 ft 474 kts 161°
2026-04-22 19:32 55.88221 12.94570 28208 ft 473 kts 161°
2026-04-22 19:32 55.85048 12.96054 28600 ft 470 kts 161°
2026-04-22 19:33 55.81896 12.97523 28949 ft 468 kts 160°
2026-04-22 19:33 55.78747 12.98987 29281 ft 467 kts 160°
2026-04-22 19:33 55.75607 13.00443 29615 ft 466 kts 160°
2026-04-22 19:33 55.72514 13.01878 29964 ft 465 kts 160°
2026-04-22 19:34 55.69382 13.03331 30265 ft 465 kts 160°
2026-04-22 19:34 55.66248 13.04784 30532 ft 465 kts 160°
2026-04-22 19:34 55.63124 13.06226 30803 ft 464 kts 160°
2026-04-22 19:34 55.60000 13.07664 31092 ft 463 kts 160°
2026-04-22 19:35 55.56892 13.09091 31427 ft 460 kts 160°
2026-04-22 19:35 55.53800 13.10511 31743 ft 458 kts 160°
2026-04-22 19:35 55.51757 13.11453 31946 ft 458 kts 160°
2026-04-22 19:35 55.47685 13.13328 32294 ft 456 kts 159°
2026-04-22 19:36 55.44614 13.14735 32583 ft 455 kts 159°
2026-04-22 19:36 55.41554 13.16135 32853 ft 454 kts 159°
2026-04-22 19:36 55.38495 13.17528 33144 ft 454 kts 159°
2026-04-22 19:36 55.35442 13.18916 33444 ft 452 kts 159°
2026-04-22 19:37 55.32400 13.20297 33716 ft 452 kts 159°
2026-04-22 19:37 55.29359 13.21673 33983 ft 451 kts 159°
2026-04-22 19:37 55.26362 13.23028 34259 ft 450 kts 159°
2026-04-22 19:37 55.23329 13.24400 34503 ft 450 kts 159°
2026-04-22 19:38 55.20303 13.25772 34748 ft 449 kts 159°
2026-04-22 19:38 55.17278 13.27140 34978 ft 448 kts 159°
2026-04-22 19:38 55.14257 13.28501 35210 ft 448 kts 159°
2026-04-22 19:38 55.11237 13.29863 35370 ft 449 kts 159°
2026-04-22 19:39 55.08208 13.31228 35545 ft 449 kts 159°
2026-04-22 19:39 55.05181 13.32583 35756 ft 449 kts 159°
2026-04-22 19:39 55.02201 13.33911 35990 ft 447 kts 159°
2026-04-22 19:39 54.99189 13.35251 36214 ft 446 kts 159°
2026-04-22 19:40 54.96180 13.36587 36407 ft 445 kts 159°
2026-04-22 19:40 54.93182 13.37915 36598 ft 445 kts 159°
2026-04-22 19:40 54.90167 13.39182 36767 ft 446 kts 161°
2026-04-22 19:40 54.87123 13.40254 36934 ft 448 kts 163°
2026-04-22 19:41 54.84051 13.41175 37106 ft 448 kts 164°
2026-04-22 19:41 54.80967 13.42015 37225 ft 450 kts 165°
2026-04-22 19:41 54.77908 13.42832 37250 ft 452 kts 165°
2026-04-22 19:42 54.71669 13.44576 37246 ft 455 kts 164°
2026-04-22 19:42 54.65425 13.46450 37244 ft 456 kts 163°
2026-04-22 19:43 54.56051 13.49276 37241 ft 456 kts 164°
2026-04-22 19:43 54.49838 13.51103 37271 ft 456 kts 164°
2026-04-22 19:44 54.43584 13.52947 37269 ft 456 kts 164°
2026-04-22 19:44 54.37325 13.54797 37266 ft 456 kts 164°
2026-04-22 19:45 54.31067 13.56627 37255 ft 456 kts 164°
2026-04-22 19:45 54.24810 13.58458 37258 ft 456 kts 164°
2026-04-22 19:46 54.18594 13.60273 37277 ft 456 kts 164°
2026-04-22 19:46 54.12337 13.62095 37271 ft 456 kts 164°
2026-04-22 19:47 54.06081 13.63899 37269 ft 456 kts 164°
2026-04-22 19:47 53.99875 13.65697 37267 ft 455 kts 164°
2026-04-22 19:48 53.93623 13.67515 37285 ft 456 kts 164°
2026-04-22 19:48 53.87375 13.69307 37277 ft 455 kts 164°
2026-04-22 19:49 53.81124 13.71081 37284 ft 455 kts 164°
2026-04-22 19:49 53.74911 13.72843 37278 ft 456 kts 164°
2026-04-22 19:50 53.68646 13.74630 37293 ft 457 kts 164°
2026-04-22 19:50 53.62381 13.76415 37288 ft 457 kts 164°
2026-04-22 19:51 53.56115 13.78191 37279 ft 457 kts 164°
2026-04-22 19:51 53.49891 13.79943 37274 ft 456 kts 164°
2026-04-22 19:52 53.43634 13.81694 37292 ft 456 kts 164°
2026-04-22 19:52 53.37377 13.83451 37284 ft 456 kts 164°
2026-04-22 19:53 53.31123 13.85212 37283 ft 456 kts 164°
2026-04-22 19:53 53.24907 13.86948 37273 ft 456 kts 164°
2026-04-22 19:54 53.18654 13.88689 37276 ft 456 kts 164°
2026-04-22 19:54 53.12393 13.90420 37303 ft 457 kts 164°
2026-04-22 19:55 53.06121 13.92151 37286 ft 457 kts 164°
2026-04-22 19:55 52.99884 13.93861 37274 ft 457 kts 164°
2026-04-22 19:56 52.93604 13.95580 37276 ft 457 kts 164°
2026-04-22 19:56 52.87307 13.97204 37291 ft 459 kts 166°
2026-04-22 19:57 52.80966 13.98525 37280 ft 460 kts 167°
2026-04-22 19:57 52.74654 13.99757 37276 ft 460 kts 167°
2026-04-22 19:58 52.68306 14.01062 37275 ft 459 kts 166°
2026-04-22 19:58 52.61972 14.02425 37274 ft 459 kts 166°
2026-04-22 20:00 52.39815 14.07108 37303 ft 460 kts 166°
2026-04-22 20:01 52.33463 14.08429 37291 ft 460 kts 166°
2026-04-22 20:01 52.27114 14.09759 37283 ft 460 kts 166°
2026-04-22 20:02 52.20803 14.11087 37279 ft 460 kts 166°
2026-04-22 20:02 52.14446 14.12410 37291 ft 461 kts 166°
2026-04-22 20:03 52.08085 14.13713 37286 ft 461 kts 166°
2026-04-22 20:03 52.01769 14.15002 37284 ft 460 kts 166°
2026-04-22 20:04 51.95418 14.16305 37282 ft 460 kts 166°
2026-04-22 20:04 51.89069 14.17603 37290 ft 460 kts 166°
2026-04-22 20:05 51.82713 14.18902 37281 ft 461 kts 166°
2026-04-22 20:05 51.76397 14.20191 37280 ft 461 kts 166°
2026-04-22 20:06 51.70036 14.21483 37277 ft 461 kts 166°
2026-04-22 20:06 51.63674 14.22771 37301 ft 461 kts 167°
2026-04-22 20:07 51.57307 14.24056 37279 ft 461 kts 167°
2026-04-22 20:07 51.50981 14.25328 37273 ft 461 kts 167°
2026-04-22 20:08 51.44612 14.26608 37272 ft 461 kts 167°
2026-04-22 20:08 51.38250 14.27885 37281 ft 461 kts 167°
2026-04-22 20:09 51.31877 14.29152 37278 ft 462 kts 167°
2026-04-22 20:09 51.25499 14.30422 37281 ft 462 kts 167°
2026-04-22 20:10 51.19168 14.31682 37282 ft 461 kts 167°
2026-04-22 20:10 51.12796 14.32941 37287 ft 462 kts 167°
2026-04-22 20:11 51.06417 14.34197 37300 ft 462 kts 167°
2026-04-22 20:11 51.00033 14.35461 37288 ft 463 kts 167°
2026-04-22 20:12 50.93682 14.36716 37283 ft 463 kts 166°
2026-04-22 20:12 50.88452 14.38506 37290 ft 458 kts 161°
2026-04-22 20:13 50.81230 14.41195 37278 ft 459 kts 161°
2026-04-22 20:13 50.75005 14.43497 37277 ft 460 kts 161°
2026-04-22 20:14 50.68777 14.45794 37286 ft 460 kts 161°
2026-04-22 20:14 50.62587 14.48080 37287 ft 461 kts 161°
2026-04-22 20:15 50.56339 14.50387 37276 ft 461 kts 161°
2026-04-22 20:15 50.50107 14.52760 37296 ft 458 kts 156°
2026-04-22 20:16 50.44494 14.57104 37293 ft 445 kts 139°
2026-04-22 20:16 50.39962 14.63440 37287 ft 439 kts 130°
2026-04-22 20:17 50.35570 14.70105 37270 ft 440 kts 131°
2026-04-22 20:17 50.31155 14.76768 37263 ft 441 kts 131°
2026-04-22 20:18 50.26728 14.83436 37265 ft 442 kts 131°
2026-04-22 20:18 50.22322 14.90048 37281 ft 442 kts 131°
2026-04-22 20:19 50.17879 14.96699 37280 ft 443 kts 131°
2026-04-22 20:19 50.13438 15.03344 37271 ft 443 kts 131°
2026-04-22 20:20 50.08990 15.09978 37270 ft 443 kts 131°
2026-04-22 20:20 50.04536 15.16594 37267 ft 443 kts 131°
2026-04-22 20:21 50.00109 15.23156 37283 ft 443 kts 131°
2026-04-22 20:21 49.95648 15.29751 37274 ft 443 kts 131°
2026-04-22 20:22 49.91179 15.36334 37269 ft 442 kts 131°
2026-04-22 20:22 49.86745 15.42858 37263 ft 442 kts 131°
2026-04-22 20:23 49.82273 15.49416 37268 ft 443 kts 131°
2026-04-22 20:23 49.77795 15.55974 37276 ft 444 kts 131°
2026-04-22 20:24 49.73299 15.62527 37265 ft 445 kts 131°
2026-04-22 20:24 49.68824 15.69035 37258 ft 445 kts 131°
2026-04-22 20:25 49.64314 15.75584 37260 ft 445 kts 131°
2026-04-22 20:25 49.59791 15.82118 37256 ft 445 kts 131°
2026-04-22 20:26 49.55269 15.88643 37274 ft 445 kts 131°
2026-04-22 20:26 49.50737 15.95165 37272 ft 446 kts 132°
2026-04-22 20:27 49.46224 16.01649 37254 ft 447 kts 132°
2026-04-22 20:27 49.41677 16.08167 37250 ft 447 kts 132°
2026-04-22 20:28 49.37119 16.14674 36940 ft 446 kts 132°
2026-04-22 20:28 49.34848 16.17904 36684 ft 445 kts 131°
2026-04-22 20:28 49.32576 16.21113 36227 ft 445 kts 133°
2026-04-22 20:28 49.30085 16.23980 35441 ft 451 kts 142°
2026-04-22 20:29 49.27350 16.26221 34773 ft 452 kts 147°
2026-04-22 20:29 49.24538 16.28287 33492 ft 448 kts 147°
2026-04-22 20:29 49.21749 16.30338 32458 ft 438 kts 147°
2026-04-22 20:29 49.19036 16.32331 31511 ft 429 kts 147°
2026-04-22 20:30 49.16377 16.34290 30517 ft 421 kts 147°
2026-04-22 20:30 49.13751 16.36233 29363 ft 419 kts 147°
2026-04-22 20:30 49.11099 16.38214 28463 ft 429 kts 147°
2026-04-22 20:30 49.08415 16.40218 27237 ft 430 kts 147°
2026-04-22 20:31 49.05705 16.42226 26043 ft 437 kts 148°
2026-04-22 20:31 49.02943 16.44258 24886 ft 444 kts 148°
2026-04-22 20:31 49.00162 16.46296 23947 ft 458 kts 149°
2026-04-22 20:31 48.97264 16.48416 23481 ft 465 kts 149°
2026-04-22 20:32 48.94336 16.50556 23222 ft 468 kts 149°
2026-04-22 20:32 48.91413 16.52695 22388 ft 463 kts 149°
2026-04-22 20:32 48.88522 16.54798 21587 ft 460 kts 149°
2026-04-22 20:32 48.85642 16.56889 20804 ft 457 kts 149°
2026-04-22 20:33 48.82780 16.58964 20051 ft 454 kts 150°
2026-04-22 20:33 48.79930 16.61008 19299 ft 452 kts 152°
2026-04-22 20:33 48.76952 16.62569 18568 ft 455 kts 163°
2026-04-22 20:33 48.73857 16.63598 18271 ft 456 kts 163°
2026-04-22 20:34 48.70808 16.64645 17990 ft 454 kts 163°
2026-04-22 20:34 48.67737 16.65730 17710 ft 452 kts 163°
2026-04-22 20:34 48.64681 16.66821 17444 ft 451 kts 163°
2026-04-22 20:34 48.61632 16.67904 17179 ft 449 kts 163°
2026-04-22 20:35 48.58599 16.68968 16918 ft 447 kts 163°
2026-04-22 20:35 48.55572 16.70016 16667 ft 445 kts 164°
2026-04-22 20:35 48.52556 16.71049 16407 ft 443 kts 164°
2026-04-22 20:35 48.49553 16.72075 16072 ft 442 kts 164°
2026-04-22 20:36 48.46606 16.73080 15472 ft 438 kts 165°
2026-04-22 20:36 48.43687 16.74076 14840 ft 419 kts 165°
2026-04-22 20:36 48.40909 16.75024 14229 ft 400 kts 165°
2026-04-22 20:36 48.38253 16.75933 13576 ft 383 kts 165°
2026-04-22 20:37 48.35704 16.76806 12906 ft 369 kts 165°
2026-04-22 20:37 48.33243 16.77649 12248 ft 357 kts 165°
2026-04-22 20:37 48.30862 16.78462 11604 ft 346 kts 165°
2026-04-22 20:37 48.28548 16.79253 10969 ft 337 kts 166°
2026-04-22 20:38 48.26295 16.80025 10354 ft 328 kts 166°
2026-04-22 20:38 48.24119 16.80768 9710 ft 321 kts 166°
2026-04-22 20:38 48.21961 16.81501 9037 ft 315 kts 166°
2026-04-22 20:38 48.19843 16.82220 8375 ft 309 kts 166°
2026-04-22 20:39 48.17746 16.82931 7496 ft 312 kts 166°
2026-04-22 20:39 48.15653 16.83639 6872 ft 305 kts 166°
2026-04-22 20:39 48.13689 16.84618 6493 ft 288 kts 153°
2026-04-22 20:39 48.12014 16.86066 6224 ft 269 kts 141°
2026-04-22 20:40 48.10654 16.87833 5966 ft 250 kts 129°
2026-04-22 20:40 48.09607 16.89790 5699 ft 233 kts 118°
2026-04-22 20:40 48.08843 16.91829 5442 ft 225 kts 110°
2026-04-22 20:40 48.08148 16.93935 5194 ft 225 kts 111°
2026-04-22 20:41 48.07451 16.96020 4961 ft 223 kts 111°
2026-04-22 20:41 48.06759 16.98082 4826 ft 219 kts 111°
2026-04-22 20:41 48.06089 17.00079 4689 ft 211 kts 111°
2026-04-22 20:41 48.05401 17.01978 4547 ft 207 kts 124°
2026-04-22 20:42 48.04227 17.03207 4407 ft 212 kts 164°
2026-04-22 20:42 48.02777 17.03182 4279 ft 210 kts 204°
2026-04-22 20:42 48.01538 17.02082 4166 ft 208 kts 224°
2026-04-22 20:42 48.00636 17.00508 4084 ft 197 kts 242°
2026-04-22 20:43 47.99924 16.98831 3957 ft 186 kts 245°
2026-04-22 20:43 47.99278 16.97207 3817 ft 178 kts 252°
2026-04-22 20:43 47.98956 16.95487 3681 ft 168 kts 274°
2026-04-22 20:43 47.99055 16.93805 3545 ft 157 kts 294°
2026-04-22 20:44 47.99461 16.92376 3416 ft 144 kts 304°
2026-04-22 20:44 47.99895 16.91064 3278 ft 139 kts 304°
2026-04-22 20:44 48.00320 16.89782 3150 ft 135 kts 304°
2026-04-22 20:44 48.00727 16.88551 3087 ft 134 kts 305°
2026-04-22 20:45 48.01137 16.87311 3025 ft 133 kts 305°
2026-04-22 20:45 48.01546 16.86075 3008 ft 133 kts 305°
2026-04-22 20:45 48.01955 16.84834 3007 ft 133 kts 305°
2026-04-22 20:45 48.02365 16.83593 3013 ft 133 kts 305°
2026-04-22 20:46 48.03181 16.81116 3007 ft 132 kts 304°
2026-04-22 20:46 48.03450 16.80300 3014 ft 132 kts 305°
2026-04-22 20:46 48.03856 16.79067 3015 ft 132 kts 305°
2026-04-22 20:47 48.04393 16.77435 3012 ft 132 kts 304°
2026-04-22 20:47 48.04800 16.76198 3011 ft 132 kts 304°
2026-04-22 20:47 48.05206 16.74964 3013 ft 133 kts 304°
2026-04-22 20:47 48.05607 16.73721 2952 ft 133 kts 304°
2026-04-22 20:48 48.06012 16.72489 2821 ft 132 kts 305°
2026-04-22 20:48 48.06280 16.71675 2704 ft 132 kts 304°
2026-04-22 20:48 48.06690 16.70442 2512 ft 132 kts 305°
2026-04-22 20:48 48.07095 16.69211 2347 ft 132 kts 305°
2026-04-22 20:49 48.07497 16.67980 2189 ft 132 kts 305°
2026-04-22 20:49 48.08032 16.66356 1920 ft 131 kts 305°
2026-04-22 20:49 48.08431 16.65141 1772 ft 130 kts 304°
2026-04-22 20:49 48.08829 16.63923 1604 ft 130 kts 303°
2026-04-22 20:50 48.09090 16.63117 1443 ft 131 kts 302°
2026-04-22 20:50 48.09495 16.61890 1264 ft 132 kts 299°
2026-04-22 20:50 48.09894 16.60656 1079 ft 131 kts 298°
2026-04-22 20:50 48.10298 16.59431 913 ft 132 kts 298°
2026-04-22 20:51 48.10827 16.57802 682 ft 131 kts 297°
2026-04-22 20:51 48.11092 16.56989 618 ft 123 kts 297°
2026-04-22 20:51 48.11400 16.56052 613 ft 76 kts 296°
2026-04-22 20:51 48.11555 16.55573 613 ft 26 kts 296°
2026-04-22 20:52 48.11615 16.55433 616 ft 17 kts 302°
2026-04-22 20:52 48.11712 16.55272 609 ft 23 kts 319°
2026-04-22 20:52 48.11836 16.55140 618 ft 21 kts 350°
2026-04-22 20:52 48.11878 16.55221 612 ft 9 kts 108°
2026-04-22 20:53 48.11852 16.55302 613 ft 8 kts 115°
2026-04-22 20:53 48.11828 16.55374 618 ft 7 kts 116°
2026-04-22 20:53 48.11808 16.55436 619 ft 6 kts 116°
2026-04-22 20:53 48.11776 16.55532 610 ft 18 kts 114°
2026-04-22 20:54 48.11719 16.55712 612 ft 19 kts 115°
2026-04-22 20:54 48.11664 16.55880 620 ft 17 kts 115°
2026-04-22 20:54 48.11615 16.56030 614 ft 16 kts 115°
2026-04-22 20:54 48.11591 16.56147 618 ft 10 kts 79°
2026-04-22 20:55 48.11633 16.56216 612 ft 8 kts 39°
2026-04-22 20:55 48.11680 16.56258 620 ft 10 kts 27°
2026-04-22 20:55 48.11747 16.56312 616 ft 11 kts 39°
2026-04-22 20:55 48.11743 16.56411 609 ft 10 kts 115°
2026-04-22 20:56 48.11711 16.56508 619 ft 14 kts 116°
2026-04-22 20:56 48.11679 16.56609 612 ft 8 kts 115°
2026-04-22 20:56 48.11664 16.56657 613 ft 4 kts 116°
2026-04-22 20:56 48.11646 16.56672 613 ft 3 kts 175°
2026-04-22 20:57 48.11623 16.56655 613 ft 4 kts 206°
2026-04-22 20:57 48.11591 16.56633 612 ft 3 kts 206°
2026-04-22 20:57 48.11590 16.56632 612 ft 0 kts 206°